Regional Weather Roundup
Issued by NWS

Home | Current Version | Previous Version | Graphics & Text | Print | Product List | Glossary On
Versions: 1 2 3 4 5 6 7 8 9 10 11 12 13 14 15 16 17 18 19 20 21 22 23 24 25 26 27 28 29 30 31 32 33 34 35 36 37 38 39 40 41 42 43 44 45 46 47 48 49 50
000
ASUS43 KLMK 270502
RWRKY
KENTUCKY REGIONAL WEATHER ROUNDUP
NATIONAL WEATHER SERVICE LOUISVILLE KY
1200 AM EST FRI FEB 27 2015

NOTE "FAIR" INDICATES FEW OR NO CLOUDS BELOW 12,000 FEET
WITH NO SIGNIFICANT WEATHER AND/OR OBSTRUCTIONS TO VISIBILITY.

KYZ001>023-026-027-061>063-070>075-270600-
WESTERN AND SOUTH CENTRAL KENTUCKY

CITY           SKY/WX    TMP DP  RH WIND       PRES   REMARKS
PADUCAH        CLOUDY    21  12  68 N12       30.44R WCI   9
HENDERSON      CLEAR     19   9  63 NW7       30.44R WCI  10
OWENSBORO      PTCLDY    19  11  71 N8        30.42R WCI   9
HOPKINSVILLE   CLEAR     22  16  78 N7        30.39R WCI  13
BOWLING GREEN  CLOUDY    25  13  60 NW10      30.36R WCI  15
GLASGOW        NOT AVBL
$$

KYZ024-025-028>034-038-045-046-053-270600-
NORTH CENTRAL KENTUCKY

CITY           SKY/WX    TMP DP  RH WIND       PRES   REMARKS
LOUISVILLE/SDF CLEAR     18   8  65 N7        30.39R WCI   9
LOUISVILLE/LOU CLEAR     17   6  62 N6        30.39R WCI   9
FORT KNOX      CLEAR     17   8  67 N8        30.35S WCI   7
$$

KYZ035>037-039>044-047>052-055>060-089>105-270600-
NORTHEAST KENTUCKY

CITY           SKY/WX    TMP DP  RH WIND       PRES   REMARKS
LEXINGTON      MOCLDY    15   8  73 N12       30.33R WCI   2
COVINGTON      PTCLDY    12   4  70 NW6       30.34R WCI   3
FRANKFORT      PTCLDY    16   6  65 N7        30.34R WCI   6
$$

KYZ054-064>069-076>088-106>120-270600-
SOUTHEAST KENTUCKY

CITY           SKY/WX    TMP DP  RH WIND       PRES   REMARKS
JACKSON        LGT SNOW  23  16  74 N5        30.23R WCI  17
LONDON         LGT SNOW  26  18  71 N8        30.24R WCI  18
SOMERSET       NOT AVBL
MIDDLESBORO    NOT AVBL
MONTICELLO     LGT SNOW  25  21  84 NW12      30.32R FOG     WCI  14
$$




USA.gov is the U.S. government's official web portal to all federal, state and local government web resources and services.